Weather History for KGIF - October, 2011

Change the Weather History Date:

Friday, October 7, 2011

  Actual Average Record
Temperature  
Mean Temperature 76 °F -  
Max Temperature 86 °F 87 °F 94 °F (1951)
Min Temperature 68 °F 67 °F 56 °F (1979)
Cooling Degree Days 11    
Growing Degree Days 26 (Base 50)    
Moisture  
Dew Point 66 °F    
Average Humidity 77    
Maximum Humidity 93    
Minimum Humidity 51    
Precipitation  
Precipitation 0.09 in - - ()
Sea Level Pressure  
Sea Level Pressure 30.11 in    
Wind  
Wind Speed 7 mph (NE)    
Max Wind Speed 16 mph    
Max Gust Speed 31 mph    
Visibility 10 miles    
Events Rain , Thunderstorm    
Averages and records for this station are not official NWS values.
T = Trace of Precipitation, MM = Missing Value Source: NWS Daily Summary

Daily Weather History Graph

Daily Weather History Graph

Search for Another Location

Airport or City:

Trip Planner

Search our weather history database for the weather conditions in past years. The results will help you decide how hot, cold, wet, or windy it might be!

Date:

Astronomy

Oct. 07, 2011 Rise Set
Actual Time 7:22 AM EDT 7:06 PM EDT
Civil Twilight 6:59 AM EDT 7:29 PM EDT
Nautical Twilight 6:32 AM EDT 7:57 PM EDT
Astronomical Twilight 6:04 AM EDT 8:24 PM EDT
Moon 4:32 PM EDT (10/7) 3:29 AM EDT (10/7)
Length of Visible Light 12h 30m
Length of Day
11h 43m
Waxing Gibbous, 83% of the Moon is Illuminated
Oct 7
Waxing Gibbous
Oct 11
Full
Oct 19
Last Quarter
Oct 26
New
Nov 2
First Quarter

Hourly Weather History & Observations

Time (EDT) Temp. Heat Index Dew Point Humidity Pressure Visibility Wind Dir Wind Speed Gust Speed Precip Events Conditions
12:53 AM 69.1 °F - 64.9 °F 87% 30.10 in 10.0 mi NNE 4.6 mph 31.1 mph N/A   Clear
1:53 AM 69.1 °F - 64.0 °F 84% 30.10 in 10.0 mi NNE 3.5 mph - N/A   Clear
2:53 AM 69.1 °F - 64.9 °F 87% 30.09 in 10.0 mi North 8.1 mph - N/A   Clear
3:53 AM 68.0 °F - 64.9 °F 90% 30.07 in 10.0 mi North 4.6 mph - N/A   Scattered Clouds
4:53 AM 68.0 °F - 64.9 °F 90% 30.08 in 10.0 mi NNE 3.5 mph - N/A   Clear
5:53 AM 68.0 °F - 64.9 °F 90% 30.09 in 10.0 mi NE 5.8 mph - N/A   Partly Cloudy
6:53 AM 68.0 °F - 66.0 °F 93% 30.11 in 10.0 mi NE 4.6 mph - N/A   Scattered Clouds
7:53 AM 69.1 °F - 66.0 °F 90% 30.13 in 10.0 mi NE 8.1 mph - N/A   Clear
8:53 AM 73.0 °F - 68.0 °F 84% 30.14 in 10.0 mi ENE 5.8 mph - N/A   Mostly Cloudy
9:53 AM 77.0 °F - 66.9 °F 71% 30.14 in 10.0 mi NE 5.8 mph - N/A   Scattered Clouds
10:53 AM 80.1 °F 82.7 °F 68.0 °F 67% 30.14 in 10.0 mi East 11.5 mph - N/A   Scattered Clouds
11:12 AM 82.4 °F 85.4 °F 68.0 °F 62% 30.15 in 10.0 mi East 10.4 mph 18.4 mph N/A   Mostly Cloudy
11:35 AM 82.4 °F 84.6 °F 66.2 °F 58% 30.14 in 10.0 mi East 11.5 mph - N/A   Scattered Clouds
1:53 PM 84.9 °F 86.6 °F 64.9 °F 51% 30.10 in 10.0 mi ENE 15.0 mph - N/A   Clear
2:53 PM 75.0 °F - 64.9 °F 71% 30.10 in 10.0 mi East 12.7 mph - 0.00 in Thunderstorm Scattered Clouds
3:02 PM 75.2 °F - 66.2 °F 73% 30.09 in 10.0 mi East 8.1 mph - N/A   Partly Cloudy
3:53 PM 79.0 °F - 66.9 °F 66% 30.08 in 10.0 mi ENE 9.2 mph - N/A   Clear
5:00 PM 78.8 °F - 66.2 °F 65% 30.09 in 10.0 mi ENE 16.1 mph - N/A Thunderstorm Clear
5:14 PM 80.6 °F 82.7 °F 66.2 °F 61% 30.08 in 10.0 mi ENE 16.1 mph 23.0 mph N/A   Clear
5:53 PM 79.0 °F - 66.0 °F 64% 30.08 in 10.0 mi NE 15.0 mph - N/A   Clear
6:53 PM 75.9 °F - 64.9 °F 69% 30.09 in 10.0 mi NE 10.4 mph - N/A   Clear
7:53 PM 73.9 °F - 64.0 °F 71% 30.11 in 10.0 mi East 12.7 mph 25.3 mph N/A   Mostly Cloudy
8:53 PM 72.0 °F - 66.0 °F 81% 30.12 in 10.0 mi NNE 6.9 mph - N/A   Mostly Cloudy
9:25 PM 71.6 °F - 66.2 °F 83% 30.14 in 10.0 mi NE 4.6 mph - N/A   Mostly Cloudy
9:40 PM 71.6 °F - 68.0 °F 88% 30.14 in 2.5 mi Calm Calm - 0.08 in Rain Heavy Rain
9:47 PM 71.6 °F - 66.2 °F 83% 30.14 in 4.0 mi East 4.6 mph - 0.09 in Rain Light Rain
9:53 PM 71.1 °F - 68.0 °F 90% 30.14 in 10.0 mi East 4.6 mph - 0.09 in Rain Light Rain
10:53 PM 70.0 °F - 66.9 °F 90% 30.14 in 10.0 mi NNE 5.8 mph - N/A   Scattered Clouds
11:53 PM 70.0 °F - 66.0 °F 87% 30.13 in 10.0 mi East 8.1 mph - N/A   Clear